Location: Chuathbaluk
(61.5726°N, 159.2454°W)
Time: 00:03:20
(UTC+00:00)

Explorer 7 - Pass Details

Date: 04 December 2021
Orbit: 483 x 674 km, 50.3° (Epoch: 21 January)

Event Time Altitude Azimuth Distance (km) Brightness Sun altitude
Rises 18:09:11 0° 232° (SW) 2,753 10.2 -8.3°
Reaches altitude 10° 18:12:10 10° 211° (SSW) 1,815 9.5 -8.0°
Maximum altitude 18:14:42 16° 172° (S) 1,439 9.5 -7.8°
Drops below altitude 10° 18:17:10 10° 134° (SE) 1,751 11.0 -7.5°
Sets 18:19:58 0° 112° (ESE) 2,607 12.3 -7.3°
